KA1WBH Weather Reports


Display with metric or nautical units.
time (UTC)temp
F
wind
direction
speed
MPH
gust
MPH
rain 1hr
in
rain 24hr
in
rain mn
in
humidity
%
barometer
mb
20170525082948 55 67 4.0 14.0 0.00 0.02 0.00 92 1009.8
20170525081949 55 94 4.0 13.0 0.00 0.02 0.00 92 1010.2
20170525080948 55 98 3.0 13.0 0.00 0.02 0.00 92 1010.2
20170525075948 55 79 8.0 14.0 0.00 0.02 0.00 92 1010.1
20170525074949 55 94 5.0 14.0 0.00 0.02 0.00 92 1010.0
20170525073948 55 96 4.0 12.0 0.00 0.02 0.00 92 1010.0
20170525072948 55 54 3.0 14.0 0.00 0.02 0.00 92 1010.1
20170525071948 55 75 3.0 15.0 0.00 0.02 0.00 91 1009.9
20170525070948 55 62 4.0 14.0 0.00 0.02 0.00 91 1009.9
20170525065948 55 38 6.0 13.0 0.00 0.02 0.00 91 1009.9
20170525064948 55 79 0.0 15.0 0.00 0.02 0.00 90 1009.6
20170525063948 55 81 4.0 15.0 0.00 0.02 0.00 90 1009.9
20170525062948 55 119 3.0 12.0 0.00 0.02 0.00 89 1010.0
20170525061948 55 73 2.0 12.0 0.00 0.02 0.00 89 1010.1
20170525060948 55 90 5.0 10.0 0.00 0.02 0.00 88 1010.2
20170525055948 55 67 7.0 11.0 0.00 0.02 0.00 88 1010.2
20170525054948 55 98 0.0 10.0 0.00 0.02 0.00 88 1010.4
20170525053948 55 58 5.0 11.0 0.00 0.02 0.00 89 1010.4
20170525052948 55 78 3.0 10.0 0.00 0.02 0.00 90 1010.8
20170525051948 55 66 0.0 10.0 0.00 0.02 0.00 90 1010.9
20170525050948 55 90 0.0 9.0 0.00 0.02 0.00 90 1010.9
20170525045948 55 98 2.0 9.0 0.00 0.02 0.00 90 1011.0
20170525044948 55 91 6.0 9.0 0.00 0.02 0.00 90 1010.9
20170525043948 55 62 0.0 11.0 0.00 0.02 0.00 90 1011.0
20170525042948 55 79 3.0 10.0 0.00 0.02 0.00 89 1010.8
20170525041948 55 85 5.0 10.0 0.00 0.02 0.00 89 1011.0
20170525040948 55 79 6.0 11.0 0.00 0.02 0.00 89 1010.9
20170525035948 55 61 3.0 9.0 0.00 0.02 0.00 89 1010.8
20170525034948 55 112 2.0 7.0 0.00 0.02 0.02 89 1011.0
20170525033949 55 64 6.0 9.0 0.00 0.02 0.02 89 1011.0
20170525032948 55 72 3.0 7.0 0.00 0.02 0.02 90 1010.9
20170525031948 55 74 2.0 7.0 0.00 0.02 0.02 90 1010.6
20170525030948 55 75 2.0 10.0 0.00 0.02 0.02 89 1010.3
20170525025948 55 60 4.0 10.0 0.00 0.02 0.02 90 1010.2
20170525024948 55 55 3.0 9.0 0.00 0.02 0.02 90 1010.2
20170525023948 55 57 1.0 7.0 0.00 0.02 0.02 90 1010.3
20170525022948 55 60 0.0 11.0 0.00 0.02 0.02 89 1010.4
20170525021948 55 54 6.0 9.0 0.00 0.02 0.02 89 1010.1
20170525020948 56 68 0.0 7.0 0.00 0.02 0.02 89 1010.6
20170525015948 56 67 5.0 7.0 0.00 0.02 0.02 89 1010.7
20170525014948 56 38 1.0 9.0 0.00 0.02 0.02 89 1010.5
20170525013948 56 54 0.0 7.0 0.00 0.02 0.02 89 1010.5
20170525012948 56 54 4.0 6.0 0.00 0.02 0.02 88 1010.7
20170525011948 56 52 1.0 9.0 0.00 0.02 0.02 87 1010.7
20170525010948 56 58 1.0 7.0 0.00 0.02 0.02 87 1010.6
20170525005948 56 58 0.0 9.0 0.00 0.02 0.02 87 1010.6
20170525004948 57 67 5.0 10.0 0.00 0.02 0.02 87 1010.6
20170525003948 57 14 3.0 11.0 0.00 0.02 0.02 86 1010.4
20170525002948 57 69 4.0 12.0 0.00 0.02 0.02 86 1009.9
20170525001948 57 52 0.0 13.0 0.00 0.02 0.02 85 1009.5
20170525000948 58 43 5.0 14.0 0.00 0.02 0.02 84 1009.3
20170524235948 58 26 1.0 12.0 0.00 0.02 0.02 83 1009.1
20170524234948 58 52 6.0 12.0 0.00 0.02 0.02 83 1009.1
20170524233948 58 88 4.0 15.0 0.00 0.02 0.02 82 1008.7
20170524232948 59 80 9.0 13.0 0.00 0.02 0.02 82 1008.4
20170524231948 59 57 6.0 15.0 0.00 0.02 0.02 82 1008.4
20170524230948 59 71 7.0 14.0 0.00 0.02 0.02 81 1008.2
20170524225948 60 52 8.0 16.0 0.00 0.02 0.02 80 1008.3
20170524224948 60 79 1.0 12.0 0.00 0.02 0.02 79 1008.6
20170524223948 61 110 0.0 11.0 0.00 0.02 0.02 78 1008.9
20170524222948 62 103 1.0 9.0 0.00 0.02 0.02 77 1009.3
20170524221948 62 81 4.0 11.0 0.00 0.02 0.02 77 1009.3
20170524220948 62 48 0.0 14.0 0.00 0.02 0.02 77 1009.3
20170524215948 62 57 3.0 11.0 0.00 0.02 0.02 75 1009.3
20170524214948 63 123 5.0 10.0 0.00 0.02 0.02 73 1009.3
20170524213948 62 38 0.0 9.0 0.00 0.02 0.02 75 1008.9
20170524212948 62 73 9.0 11.0 0.00 0.02 0.02 76 1008.8
20170524211948 62 43 4.0 8.0 0.00 0.02 0.02 76 1008.7
20170524210948 62 108 3.0 6.0 0.00 0.02 0.02 77 1008.4
20170524205948 62 114 4.0 11.0 0.00 0.02 0.02 76 1008.3
20170524204948 62 108 0.0 7.0 0.00 0.02 0.02 77 1008.0
20170524203948 63 125 5.0 6.0 0.00 0.02 0.02 75 1008.2
20170524202948 62 144 0.0 11.0 0.00 0.02 0.02 77 1008.2
20170524201948 62 95 0.0 12.0 0.00 0.02 0.02 76 1008.2
20170524200948 62 82 12.0 14.0 0.00 0.02 0.02 75 1008.0
20170524195948 62 55 6.0 12.0 0.00 0.02 0.02 74 1007.6
20170524194948 63 113 1.0 13.0 0.00 0.02 0.02 75 1007.6
20170524193948 62 65 3.0 18.0 0.00 0.02 0.02 75 1007.5
20170524192948 62 61 8.0 16.0 0.00 0.02 0.02 74 1007.4
20170524191948 62 74 11.0 16.0 0.00 0.02 0.02 74 1007.1
20170524190948 63 69 12.0 17.0 0.00 0.02 0.02 74 1007.2
20170524185948 63 66 1.0 14.0 0.00 0.02 0.02 73 1007.5
20170524184948 63 100 6.0 12.0 0.00 0.02 0.02 75 1007.8
20170524183948 62 65 7.0 12.0 0.00 0.02 0.02 75 1008.0
20170524182948 62 79 10.0 10.0 0.00 0.02 0.02 75 1008.3
20170524181947 62 77 5.0 12.0 0.00 0.02 0.02 74 1008.6
20170524180948 62 95 6.0 8.0 0.00 0.02 0.02 75 1008.6
20170524175947 62 107 0.0 13.0 0.00 0.02 0.02 76 1008.5
20170524174948 62 54 7.0 14.0 0.00 0.02 0.02 77 1008.3
20170524173948 61 68 11.0 13.0 0.00 0.02 0.02 76 1008.4
20170524172948 61 68 11.0 12.0 0.00 0.02 0.02 77 1008.0
20170524171948 62 65 7.0 14.0 0.00 0.02 0.02 76 1008.2
20170524170947 63 21 1.0 11.0 0.00 0.02 0.02 76 1008.1
20170524165947 61 63 2.0 11.0 0.00 0.02 0.02 79 1007.9
20170524164947 61 84 10.0 13.0 0.00 0.02 0.02 80 1008.3
20170524163947 60 83 4.0 12.0 0.00 0.02 0.02 77 1008.3
20170524162948 61 125 5.0 12.0 0.00 0.02 0.02 76 1008.3
20170524161948 60 97 5.0 13.0 0.00 0.02 0.02 76 1008.2
20170524160947 61 127 6.0 11.0 0.00 0.02 0.02 76 1008.3
20170524155947 61 109 3.0 13.0 0.00 0.02 0.02 75 1008.1
20170524154948 61 141 7.0 10.0 0.00 0.02 0.02 78 1008.2
20170524153947 60 139 6.0 11.0 0.00 0.02 0.02 77 1008.1
20170524152947 60 104 8.0 12.0 0.00 0.02 0.02 77 1007.9
20170524151947 60 173 0.0 12.0 0.00 0.02 0.02 79 1007.9
20170524150948 60 133 0.0 10.0 0.00 0.02 0.02 79 1007.9
20170524145947 60 110 0.0 10.0 0.00 0.02 0.02 79 1007.9
20170524144947 61 124 10.0 10.0 0.00 0.02 0.02 78 1007.7
20170524143948 61 91 0.0 10.0 0.00 0.02 0.02 83 1007.4
20170524142948 61 110 4.0 11.0 0.00 0.02 0.02 81 1007.0
20170524141947 61 103 11.0 11.0 0.00 0.02 0.02 82 1007.0
20170524140948 60 104 3.0 13.0 0.00 0.02 0.02 83 1007.0
20170524135947 59 114 1.0 10.0 0.00 0.02 0.02 85 1007.2
20170524134948 59 83 10.0 13.0 0.00 0.02 0.02 84 1007.3
20170524133947 59 91 5.0 13.0 0.00 0.02 0.02 84 1007.4
20170524132947 59 71 6.0 10.0 0.00 0.02 0.02 85 1007.3
20170524131948 58 60 6.0 14.0 0.00 0.02 0.02 86 1007.3
20170524130948 58 84 11.0 11.0 0.00 0.02 0.02 87 1007.2
20170524125947 57 85 1.0 11.0 0.00 0.02 0.02 89 1007.4
20170524124947 57 48 8.0 10.0 0.00 0.02 0.02 89 1007.4
20170524123948 57 27 0.0 10.0 0.00 0.02 0.02 89 1007.6
20170524122947 56 63 3.0 9.0 0.00 0.02 0.02 89 1007.5
20170524121947 56 77 0.0 7.0 0.00 0.02 0.02 90 1007.5
20170524120947 56 68 2.0 5.0 0.01 0.02 0.02 91 1007.5
20170524115947 55 95 3.0 7.0 0.01 0.02 0.02 92 1007.6
20170524114947 55 96 0.0 6.0 0.01 0.02 0.02 92 1007.6
20170524113947 55 113 0.0 7.0 0.02 0.02 0.02 91 1007.7
20170524112947 55 119 5.0 6.0 0.02 0.02 0.02 91 1007.5
20170524111947 55 102 4.0 8.0 0.02 0.02 0.02 92 1007.3
20170524110948 56 107 0.0 1.0 0.01 0.01 0.01 92 1007.3
20170524105947 56 110 0.0 3.0 0.01 0.01 0.01 92 1007.4
20170524104947 56 100 0.0 5.0 0.01 0.01 0.01 92 1007.3
20170524103947 56 110 1.0 4.0 0.00 0.00 0.00 91 1007.3
20170524102947 56 90 0.0 5.0 0.00 0.00 0.00 91 1007.3
20170524101947 56 83 0.0 0.0 0.00 0.00 0.00 91 1007.5
20170524100947 56 92 0.0 0.0 0.00 0.00 0.00 90 1007.7
20170524095948 56 116 0.0 0.0 0.00 0.00 0.00 91 1007.9
20170524094947 56 116 0.0 0.0 0.00 0.00 0.00 91 1008.0
20170524093947 56 116 0.0 0.0 0.00 0.00 0.00 91 1008.2
20170524092947 56 116 0.0 0.0 0.00 0.00 0.00 92 1007.9
20170524091947 56 140 0.0 0.0 0.00 0.00 0.00 92 1007.8
20170524090947 56 141 0.0 0.0 0.00 0.00 0.00 93 1007.7
20170524085947 56 141 0.0 0.0 0.00 0.00 0.00 93 1007.8
20170524084947 56 140 0.0 0.0 0.00 0.00 0.00 93 1007.5
20170524083947 55 141 0.0 0.0 0.00 0.00 0.00 94 1007.6